This demonstration page uses our WeatherBlox Daily Observations layout. Learn more.

Left ArrowRight Arrow

44.8408, -93.29828

Hourly Observations for July 5, 2016

Temp ( °F °C ) Dew Point ( °F °C ) Humidity (%) Winds ( mph kmh ) Pressure ( in mb ) Visibility ( mi km ) Precip ( " mm )
12:53 am 00:53 Partly Cloudy 71 21.7 62 16.7 73 73 S 7 11 29.78 1008 10 16 0.00 0.00
1:53 am 01:53 Partly Cloudy 70 21.1 62 16.7 76 76 SSW 5 7 29.78 1008 10 16 0.00 0.00
2:53 am 02:53 Mostly Cloudy 70 21.1 63 17.2 79 79 SSW 5 7 29.77 1008 10 16 0.00 0.00
3:53 am 03:53 Partly Cloudy 70 21.1 63 17.2 79 79 SW 9 15 29.74 1007 10 16 0.00 0.00
4:53 am 04:53 Mostly Cloudy 70 21.1 64 17.8 82 82 SW 12 19 29.73 1007 10 16 0.00 0.00
5:53 am 05:53 Mostly Cloudy 71 21.7 65 18.3 81 81 VRB 3 6 29.77 1008 10 16 0.00 0.00
6:21 am 06:21 Mostly Cloudy 72 22.2 65 18.3 79 79 WSW 7 11 29.77 1008 10 16 0.00 0.00
6:53 am 06:53 Cloudy 71 21.7 65 18.3 81 81 SW 12 19 29.79 1009 8 13 0.00 0.00
7:17 am 07:17 Mostly Cloudy 71 21.7 65 18.3 81 81 SW 8 13 29.77 1008 8 13 0.00 0.00
7:53 am 07:53 Mostly Cloudy 72 22.2 66 18.9 82 82 SW 8 13 29.78 1009 8 13 0.00 0.00
8:53 am 08:53 Mostly Cloudy 74 23.3 65 18.3 74 74 SSW 8 13 29.76 1008 10 16 0.00 0.00
9:53 am 09:53 Mostly Cloudy 77 25 65 18.3 66 66 SSW 10 17 29.75 1007 10 16 0.00 0.00
10:53 am 10:53 Mostly Cloudy 84 28.9 64 17.8 51 51 SW 9 15 29.75 1008 10 16 0.00 0.00
11:53 am 11:53 Mostly Cloudy 84 28.9 65 18.3 53 53 S 12 19 29.74 1007 10 16 0.00 0.00
12:53 pm 12:53 Mostly Cloudy 83 28.3 68 20 61 61 S 13 20 29.73 1007 10 16 0.00 0.00
1:53 pm 13:53 Mostly Cloudy 87 30.6 68 20 53 53 S 13 20 29.73 1007 10 16 0.00 0.00
2:53 pm 14:53 Mostly Cloudy 89 31.7 67 19.4 48 48 S 15 24 29.71 1006 10 16 0.00 0.00
3:53 pm 15:53 Mostly Cloudy 90 32.2 69 20.6 50 50 S 16 26 29.70 1006 10 16 0.00 0.00
4:40 pm 16:40 Cloudy with Nearby Thunderstorms 86 30 70 21 59 59 SSE 7 11 29.71 1006 9 14 0.00 0.00
4:53 pm 16:53 Cloudy with Light Rain 85 29.4 71 21.7 63 63 SW 7 11 29.73 1007 9 14 0.00 0.03
5:38 pm 17:38 Cloudy with Nearby Thunderstorms 82 28 72 22 70 70 SE 10 17 29.68 1005 10 16 0.00 0.00
5:53 pm 17:53 Cloudy with Thunderstorms 83 28.3 72 22.2 70 70 W 7 11 29.71 1006 10 16 0.00 0.03
5:56 pm 17:56 Cloudy with Thunderstorms 82 28 72 22 70 70 NW 29 46 29.74 1007 10 16 0.00 0.00
5:58 pm 17:58 Windy with Storms Likely 81 27 68 20 66 66 NW 33 54 29.74 1007 10 16 0.00 0.00
6:08 pm 18:08 Cloudy with Nearby Thunderstorms 70 21 64 18 83 83 NNW 31 50 29.71 1006 4 6 0.00 0.00
6:11 pm 18:11 Windy with Storms Likely 69 20.6 64 17.8 84 84 N 23 37 29.68 1005 4 6 0.08 2.03
6:35 pm 18:35 Cloudy with Strong Thunderstorms 67 19.4 64 17.8 91 91 NNE 35 56 29.74 1007 2 2 0.26 6.60
6:44 pm 18:44 Cloudy with Thunderstorms 68 20 64 18 88 88 NE 29 46 29.68 1005 6 10 0.00 0.00
6:53 pm 18:53 Windy with Storms Likely 71 21.7 65 18.3 81 81 NE 33 54 29.67 1005 9 14 0.45 11.43
7:11 pm 19:11 Windy with Storms Likely 72 22.2 65 18.3 79 79 NE 26 43 29.62 1003 10 16 0.00 0.03
7:34 pm 19:34 Cloudy with Strong Thunderstorms 72 22 64 18 78 78 W 16 26 29.80 1009 2 3 0.00 0.00
7:41 pm 19:41 Cloudy with Strong Thunderstorms 70 21.1 66 18.9 87 87 NW 16 26 29.83 1010 2 3 0.29 7.37
7:53 pm 19:53 Cloudy with Strong Thunderstorms 69 20.6 65 18.3 87 87 NE 12 19 29.79 1009 3 4 0.64 16.26
7:56 pm 19:56 Cloudy with Thunderstorms 70 21 64 18 83 83 ENE 14 22 29.77 1008 3 5 0.00 0.00
8:39 pm 20:39 Cloudy with Light Rain 70 21.1 64 17.8 82 82 VRB 6 9 29.77 1008 9 14 0.07 1.78
8:53 pm 20:53 Cloudy with Light Rain 69 20.6 64 17.8 84 84 ESE 6 9 29.82 1010 8 13 0.09 2.29
9:23 pm 21:23 Cloudy with Light Rain 69 20.6 64 17.8 84 84 ESE 17 28 29.68 1005 10 16 0.03 0.76
9:31 pm 21:31 Cloudy with Light Rain 68 20 63 17.2 84 84 E 21 33 29.62 1003 10 16 0.03 0.76
9:53 pm 21:53 Cloudy 70 21.1 62 16.7 76 76 E 20 31 29.61 1003 10 16 0.03 0.76
10:23 pm 22:23 Mostly Cloudy 70 21.1 62 16.7 76 76 SSW 5 7 29.65 1004 10 16 0.00 0.00
10:53 pm 22:53 Mostly Cloudy 70 21.1 62 16.7 76 76 SSW 6 9 29.68 1005 10 16 0.00 0.00
11:21 pm 23:21 Partly Cloudy 67 19.4 63 17.2 87 87 WNW 13 20 29.74 1007 10 16 0.00 0.00
11:53 pm 23:53 Partly Cloudy 67 19.4 63 17.2 87 87 WNW 8 13 29.76 1008 10 16 0.00 0.00

Powered by AerisWeather